www.pogodaiklimat.ru

Погода и климат >> Архив погоды >> Россия >> Якутия >> Теплый Ключ


ПОГОДА в Теплом Ключе

  • Прогноз погоды в Теплом Ключе
  • Монитор погоды в Теплом Ключе

АРХИВ ПОГОДЫ в Теплом Ключе

Время (UTC), дата Ветер
(напр.,м/с)
 
Видим.   Явления Облачность Т
(С)
Тd
(С)
f
(%)
Тe
(С)
Тes
(С)
Комфортность P
(гПа)
Po
(гПа)
Тmin
(С)
Tmax
(С)
R
(мм)
R24
(мм)
S
(см)
00 14.04 штиль 0 10 км слаб. снег 10/0 2000 м
[As trans]
-7.0 -10.3 77 -8 -5 1010.5 973.8
03 14.04 штиль 0 10 км слаб. снег 10/0
[As trans]
-6.0 -9.9 74 -7 -2 1009.0 972.5
06 14.04 С 1 10 км слаб. снег 10/0 2000 м
[As trans]
-5.2 -8.9 75 -7 -5 1007.9 971.6
09 14.04 штиль 0 10 км слаб. снег 10/0 2000 м
[As trans]
-5.5 -8.1 82 -6 -6 1008.1 971.8 -4.6 2
12 14.04 В 1 10 км {снег} 9/0 2000 м
[Ac trans]
-9.8 -11.0 91 -12 -12 1008.6 971.6
15 14.04 штиль 0 10 км 10/0 2000 м
[Ac trans Cs]
-11.0 -12.3 90 -11 -11 1007.0 969.9
18 14.04 штиль 0 10 км 10/0 2000 м
[Ac trans Cs]
-12.5 -14.0 89 -13 -13 1006.3 969.1
21 14.04 штиль 0 50 км 10/0 2000 м
[As trans]
-12.4 -14.4 85 -12 -12 1005.2 968.0 -15.1 0.0 28
00 15.04 ЮВ 1 50 км 10/0 2000 м
[As trans]
-2.0 -11.5 48 -3 -1 1003.0 967.2
03 15.04 З 2 10 км 10/0 2000 м
[As trans]
-2.0 -10.0 54 -5 -2 1002.7 966.9
06 15.04 ЮВ 2 10 км 8/0 2000 м
[Ac As]
-0.4 -8.6 54 -3 -1 1002.4 966.9
09 15.04 Ю 3 10 км {ливн. осадки} 8/8 600 м
[Cb calv Ac trans]
-2.5 -6.2 76 -7 -7 1004.3 968.5 -0.3 0.5
12 15.04 В 1 10 км 8/8 600 м
[Cb calv Ac As]
-7.6 -8.2 95 -10 -10 1006.6 970.1
15 15.04 В 2 10 км 9/0 2000 м
[Ac As]
-14.1 -15.4 90 -19 -19 1007.8 970.3
18 15.04 В 2 10 км 6/0 2000 м
[Ac trans]
-12.0 -13.3 90 -17 -17 1007.4 970.1
21 15.04 В 2 50 км 10/0 2000 м
[As trans]
-8.8 -13.2 70 -13 -13 1006.6 969.8 -14.4 28
00 16.04 ЮВ 3 10 км слаб. снег 10/0 2000 м
[As trans]
-3.5 -6.7 78 -9 -7 1006.2 970.2
03 16.04 Ю 4 50 км в посл. час снег 10/0 2000 м
[As trans]
-1.0 -7.7 60 -6 -4 1005.5 969.8
06 16.04 Ю 3 50 км {снег} 10/0 2000 м
[Ac trans Cs]
+1.1 -8.2 50 -3 -1 1004.7 969.2
09 16.04 ЮВ 1 50 км 10/0 2000 м
[As trans]
-0.4 -8.6 54 -2 -2 1004.2 968.7 +1.2 1
12 16.04 ЮВ 2 10 км 10/0 2000 м
[As trans]
-1.4 -12.0 44 -4 -4 1004.0 968.4
15 16.04 В 2
{10}
10 км 10/0 2000 м
[As trans]
-3.5 -4.9 90 -8 -8 1002.8 966.9
18 16.04 В 1 10 км 10/0 2000 м
[As trans]
-3.6 -6.1 83 -6 -6 1000.7 964.9
21 16.04 В 1 50 км {снег} 10/0 2000 м
[As trans]
-3.0 -7.2 73 -5 -5 1000.3 964.5 -4.4 0.3 27
00 17.04 В 2 10 км слаб. снег 10/0
[As op]
-1.5 -2.9 90 -5 -4 999.7 964.2
03 17.04 С 2 10 км слаб. снег 10/0 2000 м
[As op]
-0.2 -3.4 79 -4 -2 998.9 963.5
06 17.04 штиль 0 10 км слаб. снег 10/0 2000 м
[As op]
+0.4 -2.8 79 -1 +1 999.3 964.1
09 17.04 З 2 10 км слаб. снег 10/0 2000 м
[As op]
-0.4 -1.3 94 -4 -4 1000.6 965.2 +1.6 2
12 17.04 З 2 10 км слаб. ливневой снег 10/10 600 м
[Cb calv As trans]
-2.4 -3.0 96 -7 -7 1002.7 966.9
15 17.04 З 3 10 км слаб. снег 10/0 2000 м
[As op]
-4.0 -4.8 94 -10 -10 1004.6 968.6
18 17.04 ЮЗ 2 10 км слаб. снег 10/0 2000 м
[As op]
-6.5 -10.1 76 -11 -11 1008.3 971.9
21 17.04 Ю 2 10 км слаб. снег 10/0 2000 м
[As op]
-7.7 -10.8 78 -12 -12 1011.9 975.1 -7.9 1 28
00 18.04 ЮЗ 3 50 км {снег} 8/0 2000 м
[Ac trans]
-5.7 -15.9 44 -11 -8 1014.0 977.4
03 18.04 Ю 2 50 км 6/0 2000 м
[Ac trans]
-3.1 -16.0 36 -6 -1 1015.4 979.1
06 18.04 З 2 50 км 4/0 2000 м
[Ac trans]
-1.7 -14.3 38 -5 -1 1016.3 980.1
09 18.04 ЮЗ 1 50 км ясно -2.1 -16.6 32 -3 -2 1017.3 981.0 -1.5 0.0
12 18.04 В 1 10 км 3/0 2000 м
[Ac trans]
-15.3 -19.5 70 -18 -18 1020.5 982.3
15 18.04 В 1 10 км 3/0 2000 м
[Ac trans]
-17.8 -19.7 85 -21 -21 1021.7 983.1
18 18.04 штиль 0 10 км 10/0
[Cs]
-21.4 -23.9 80 -21 -21 1022.3 983.2
21 18.04 штиль 0 50 км 10/0
[Cs]
-18.6 -21.9 75 -19 -18 1021.8 983.0 -22.7 29
00 19.04 ЮВ 1 50 км 9/0
[Cs]
-3.9 -15.0 42 -5 0 1019.6 983.0
03 19.04 СВ 1 50 км 10/0
[Cs]
-0.2 -15.4 31 -1 +7 1017.8 981.8
06 19.04 С 1 50 км 5/0
[Cs]
+1.0 -17.8 23 0 +6 1016.4 980.6
09 19.04 СЗ 2 50 км 6/0
[Cs]
-1.2 -15.2 34 -4 -3 1016.5 980.4 +1.7
12 19.04 З 1 10 км ясно -6.3 -15.7 47 -8 -8 1016.8 980.0
15 19.04 штиль 0 10 км ясно -17.6 -20.2 80 -18 -18 1019.0 980.5
18 19.04 В 2 10 км ясно -21.0 -23.5 80 -27 -27 1019.3 980.3
21 19.04 В 1 50 км ясно -15.2 -20.3 65 -18 -17 1018.1 980.0 -22.5 29
00 20.04 В 2 50 км 6/0
[Ac trans]
+0.2 -11.8 40 -2 +2 1014.8 979.0
03 20.04 В 2 50 км 10/0
[As op]
+4.6 -10.1 34 +3 +5 1011.7 976.5
06 20.04 Ю 2 50 км 8/4 1000 м
[Sc Ac trans]
+7.7 -9.2 29 +7 +9 1008.8 974.1
09 20.04 Ю 4 50 км 10/0 2000 м
[As op]
+5.1 -5.9 45 +2 +2 1008.4 973.5 +7.7
12 20.04 ЮВ 3 10 км 10/4 1000 м
[Sc As op]
+3.0 -6.6 49 -0 -0 1009.4 974.2
15 20.04 ЮВ 2 10 км 10/4 1000 м
[Cb calv As op]
+3.0 -6.2 51 +1 +1 1009.7 974.5
18 20.04 Ю 5 10 км 10/0
[As op]
+1.1 -5.2 63 -4 -4 1010.7 975.1
21 20.04 Ю 3 50 км 10/0 2000 м
[As trans]
+1.5 -6.3 56 -2 -2 1009.9 974.4 -0.0 28

 

Местоположение метеостанции Теплый Ключ (Якутия, Россия): широта 62.78 долгота 136.80 высота над уровнем моря 289 м.

В архиве по умолчанию представлена погода в Теплом Ключе за последнюю неделю. Архивные данные за месяц целиком и за предыдущие месяцы, начиная с января 2011 года, Вы можете получить, выбрав интересующий диапазон дат из раскрывающегося списка и нажав кнопку "Ввод!".


*Определитесь, кто Вы:
робот инопланетянин человек

Внимание! Время в таблицах - всемирное. Для получения местного времени необходимо прибавить поправку, которая равна 9 ч.

Смотрите также архив погоды в соседних городах и на ближайших метеорологических станциях:

Погода в Охотском Перевозе (Якутия, Россия) (121 км)
Погода в Крест-Хальджае (Якутия, Россия) (122 км)
Погода в Томпо (Якутия, Россия) (139 км)
Погода в Восточной (Якутия, Россия) (150 км)
Погода в Ытык-Кюёле (Якутия, Россия) (175 км)
Погода в Чурапче (Якутия, Россия) (232 км)
Погода в Верхоянском Перевозе (Якутия, Россия) (249 км)
Погода в Агаякане (Якутия, Россия) (254 км)
Погода в Иэме (Якутия, Россия) (284 км)
Погода в Юртах (Якутия, Россия) (286 км)

Пояснения к столбцам:

Ветер - указаны скорость ветра в м/с - средняя за 10 мин, порывы в срок и между сроками (в фигурных скобках) и направление, откуда дует ветер: С - северный, СВ - северо-восточный, В - восточный, ЮВ - юго-восточный, Ю - южный, ЮЗ - юго-западный, З - западный, СЗ - северо-западный.
Видимость - горизонтальная дальность видимости в метрах или километрах. При видимости от 1 до 10 км при отсутствии осадков обычно наблюдается дымка, при ухудшении видимости до 1 км и менее - туман. В сухую погоду видимость может ухудшаться дымом, пылью или мглою.
Явления - указаны атмосферные явления, наблюдавшиеся в срок или в последний час перед сроком; фигурными скобками обозначены явления, наблюдавшиеся между сроками (за 1-3 часа до срока); квадратными скобками обозначены град или гололедные отложения с указанием их диаметра в мм.
Облачность - указаны через наклонную черту общая и нижняя облачность в баллах и высота нижней границы облаков в метрах; квадратными скобками обозначены формы облаков: Ci - перистые, Cs - перисто-слоистые, Cc - перисто-кучевые, Ac - высококучевые, As - высокослоистые, Sc - слоисто-кучевые, Ns - слоисто-дождевые, Cu - кучевые, Cb - кучево-дождевые. Подробнее классификацию облаков см. в Атласе облаков (PDF).
T - Температура воздуха - температура, измеренная на высоте 2 м над землей.
Td - Температура точки росы - температура, при понижении до которой содержащийся в воздухе водяной пар достигнет насыщения.
f - Относительная влажность воздуха - влажноcть воздуха, измеренная на высоте 2 м над землей.
Te - Эффективная температура - температура, которую ощущает одетый по сезону человек в тени. Характеристика душности погоды. При расчете учитывается влияние влажности воздуха и скорости ветра на теплоощущения человека.
Tes - Эффективная температура на солнце - температура, которую ощущает человек, с поправкой на солнечный нагрев. Характеристика знойности погоды. Зависит от высоты солнца над горизонтом, облачности и скорости ветра. Ночью, в пасмурную погоду, а также при ветре 12 м/с и более поправка равна нулю.
P - Атмосферное давление - приведенное к уровню моря атмосферное давление.
Po - Атмосферное давление - измеренное на уровне метеостанции атмосферное давление.
Tmin - Минимальная температура - минимум температуры воздуха на высоте 2 м над землей.
Tmax - Максимальная температура - максимум температуры воздуха на высоте 2 м над землей.
R - Количество осадков - Количество выпавших осадков за период времени, мм. При наведении курсора мыши на число - период времени, за который выпало указанное количество осадков.
R24 - Количество осадков - Количество выпавших осадков за 24 часа, мм.
S - Снежный покров - Высота снежного покрова, см. При наведении курсора мыши на число - состояние снежного покрова и степень покрытия местности в баллах.